EW9766 Weather Reports


time (UTC)temp
F
wind
direction
speed
knots
gust
knots
rain 1hr
in
rain 24hr
in
rain mn
in
humidity
%
barometer
mb
20260903021532 53 260 1.7 8.7 0.07 0.26 0.22 94 1010.0
20260903020129 54 308 2.6 7.0 0.05 0.22 0.20 94 1009.5
20260903014531 54 267 0.9 4.3 0.05 0.20 0.19 93 1009.1
20260903013033 53 307 0.9 5.2 0.05 0.19 0.19 93 1009.1
20260903010037 54 301 0.9 3.5 0.07 0.17 0.15 93 1009.3
20260903004536 54 253 1.7 4.3 0.05 0.15 0.14 93 1009.4
20260903003033 54 295 1.7 5.2 0.05 0.14 0.14 92 1009.3
20260902234608 54 8 1.7 4.3 0.02 0.10 0.09 91 1009.3
20260902231535 54 306 1.7 4.3 0.03 0.09 0.08 91 1009.4
20260902230038 54 296 2.6 4.3 0.02 0.08 0.08 91 1009.6
20260902224533 54 298 2.6 6.1 0.03 0.08 0.07 90 1009.4
20260902223032 54 278 1.7 7.8 0.02 0.07 0.06 90 1009.5
20260902221536 54 290 3.5 7.8 0.01 0.06 0.06 89 1009.3
20260902214534 55 294 2.6 8.7 0.02 0.05 0.05 87 1009.0
20260902213033 55 261 2.6 9.6 0.03 0.05 0.05 86 1009.0
20260902211534 55 203 1.7 7.8 0.04 0.05 0.04 86 1008.9
20260902210029 54 147 0.0 3.5 0.04 0.04 0.03 85 1009.0
20260902204533 55 115 1.7 5.2 0.03 0.03 0.02 84 1009.3
20260902203036 55 62 1.7 3.5 0.02 0.02 0.01 83 1009.3
20260902201536 55 186 1.7 5.2 0.01 0.01 0.00 82 1009.5
20260902193033 56 130 3.5 9.6 0.00 0.00 0.00 78 1009.3
20260902191532 56 110 3.5 7.8 0.00 0.00 0.00 74 1009.3
20260902190034 58 127 5.2 13.0 0.00 0.00 0.00 74 1009.5
20260902184648 58 65 1.7 6.1 0.00 0.00 0.00 76 1009.5
20260902183031 58 327 0.9 4.3 0.00 0.00 0.00 76 1009.6
20260902174530 57 302 1.7 7.0 0.00 0.00 0.00 75 1009.5
20260902173108 59 281 2.6 6.1 0.00 0.00 0.00 73 1009.4
20260902171534 59 287 1.7 5.2 0.00 0.00 0.00 72 1009.5
20260902164534 61 302 1.7 6.1 0.00 0.00 0.00 74 1009.7
20260902163031 59 355 1.7 4.3 0.00 0.00 0.00 76 1009.9
20260902161534 59 358 2.6 4.3 0.00 0.00 0.00 77 1010.2
20260902160031 57 294 0.9 3.5 0.00 0.00 0.00 80 1010.3
20260902154534 56 263 0.0 3.5 0.00 0.00 0.00 81 1010.5
20260902153035 57 220 0.0 3.5 0.00 0.00 0.00 85 1010.5
20260902151536 54 181 1.7 4.3 0.00 0.00 0.00 88 1010.5
20260902150104 53 180 0.9 2.6 0.00 0.00 0.00 89 1010.6
20260902144530 51 180 0.0 3.5 0.00 0.00 0.00 90 1010.8
20260902143028 48 165 3.5 5.2 0.00 0.00 0.00 90 1010.9
20260902141532 47 186 1.7 3.5 0.00 0.00 0.00 90 1010.9
20260902140036 46 176 1.7 4.3 0.00 0.00 0.00 90 1011.1
20260902134532 45 169 2.6 4.3 0.00 0.00 0.00 89 1011.1
20260902133034 45 189 1.7 3.5 0.00 0.00 0.00 89 1011.0
20260902131538 44 166 1.7 3.5 0.00 0.00 0.00 88 1011.1
20260902130032 45 167 1.7 4.3 0.00 0.00 0.00 86 1011.1
20260902123038 45 172 2.6 5.2 0.00 0.00 0.00 85 1011.2
20260902121532 46 167 1.7 4.3 0.00 0.00 0.00 84 1011.3
20260902120029 48 117 0.9 3.5 0.00 0.00 0.00 82 1011.3
20260902114531 50 129 1.7 5.2 0.00 0.00 0.00 82 1011.4
20260902113035 50 42 4.3 9.6 0.00 0.00 0.00 83 1011.3
20260902111536 50 53 3.5 7.0 0.00 0.00 0.00 84 1011.2
20260902110036 50 51 4.3 7.8 0.00 0.00 0.00 86 1011.1
20260902104534 48 76 3.5 7.0 0.00 0.00 0.00 87 1011.3
20260902103029 46 104 2.6 6.1 0.00 0.00 0.00 87 1011.4
20260902100105 47 140 1.7 5.2 0.00 0.00 0.00 87 1011.5
20260902094610 47 229 0.9 6.1 0.00 0.00 0.00 86 1011.7
20260902090031 48 190 1.7 4.3 0.00 0.00 0.00 84 1011.8
20260902084535 48 208 1.7 6.1 0.00 0.00 0.00 83 1011.7
20260902083036 49 147 0.0 3.5 0.00 0.00 0.00 82 1011.7
20260902081535 50 194 0.9 4.3 0.00 0.00 0.00 82 1011.9
20260902080032 51 140 2.6 5.2 0.00 0.00 0.00 80 1011.9
20260902074530 51 96 0.9 4.3 0.00 0.00 0.00 77 1012.0
20260902070030 55 302 3.5 7.8 0.00 0.00 0.00 74 1012.2
20260902064532 56 288 4.3 13.9 0.00 0.00 0.00 74 1012.3
20260902063035 56 288 4.3 19.1 0.00 0.00 0.00 73 1012.5
20260902061537 56 270 4.3 14.8 0.00 0.00 0.00 73 1012.6
20260902060036 56 296 5.2 12.2 0.00 0.00 0.00 72 1012.7
20260902053036 56 291 4.3 12.2 0.00 0.00 0.00 73 1012.6
20260902051534 56 268 4.3 10.4 0.00 0.00 0.00 73 1012.4
20260902050034 57 287 6.1 12.2 0.00 0.00 0.00 73 1012.5
20260902044534 57 278 5.2 13.9 0.00 0.00 0.00 72 1012.3
20260902043108 57 296 6.1 13.9 0.00 0.00 0.00 72 1012.1
20260902041536 57 313 5.2 13.9 0.00 0.00 0.00 72 1012.3
20260902040034 57 316 5.2 12.2 0.00 0.00 0.00 71 1012.0
20260902034531 57 279 3.5 9.6 0.00 0.00 0.00 70 1011.8
20260902033106 57 301 2.6 7.0 0.00 0.00 0.00 70 1011.5
20260902031644 57 299 3.5 10.4 0.00 0.00 0.00 68 1011.4
20260902030030 58 324 2.6 7.0 0.00 0.00 0.00 67 1011.5
20260902024531 58 260 5.2 15.6 0.00 0.00 0.00 67 1011.8
20260902023031 58 259 3.5 9.6 0.00 0.00 0.00 67 1011.5
20260902021607 59 270 4.3 10.4 0.00 0.00 0.00 65 1011.6